FW0960 Weather Reports


time (UTC)temp
C
wind
direction
speed
KPH
gust
KPH
rain 1hr
cm
rain 24hr
cm
rain mn
cm
humidity
%
barometer
mb
20260902140727 25 204 0.0 3.2 0.00 2.62 2.41 96 1019.5
20260902140231 25 204 0.0 1.6 0.00 2.62 2.41 97 1019.4
20260902135729 24 205 0.0 1.6 0.00 2.62 2.41 97 1019.3
20260902135225 24 205 0.0 3.2 0.00 2.62 2.41 98 1019.3
20260902134725 24 205 0.0 3.2 0.00 2.62 2.41 98 1019.3
20260902134252 24 202 0.0 3.2 0.00 2.62 2.41 99 1019.1
20260902133222 24 200 0.0 0.0 0.00 2.62 2.41 99 1019.0
20260902132721 23 200 0.0 0.0 0.00 2.62 2.41 100 1018.9
20260902132217 23 200 0.0 0.0 0.00 2.62 2.41 100 1018.8
20260902130712 24 200 0.0 0.0 0.00 2.62 2.41 100 1018.8
20260902130212 23 200 0.0 0.0 0.00 2.62 2.41 100 1018.8
20260902125731 23 200 0.0 0.0 0.00 2.62 2.41 100 1018.7
20260902124709 23 200 0.0 0.0 0.00 2.62 2.41 100 1018.7
20260902123711 23 200 0.0 1.6 0.00 2.62 2.41 100 1018.8
20260902123203 23 200 0.0 3.2 0.00 2.62 2.41 100 1018.8
20260902121709 23 196 0.0 0.0 0.00 2.62 2.41 100 1018.7
20260902121205 23 196 0.0 0.0 0.00 2.62 2.41 100 1018.7
20260902120700 23 196 0.0 0.0 0.00 2.62 2.41 100 1018.8
20260902120204 23 196 0.0 0.0 0.00 2.62 2.41 100 1018.8
20260902115706 23 196 0.0 0.0 0.00 2.62 2.41 100 1018.6
20260902115206 23 196 0.0 0.0 0.00 2.62 2.41 100 1018.5
20260902114203 23 196 0.0 0.0 0.00 2.62 2.41 100 1018.6
20260902113703 23 196 0.0 0.0 0.00 2.62 2.41 100 1018.6
20260902113207 23 196 0.0 0.0 0.00 2.62 2.41 100 1018.6
20260902112210 23 196 0.0 1.6 0.00 2.62 2.41 100 1018.6
20260902111702 23 194 0.0 0.0 0.00 2.62 2.41 100 1018.5
20260902111204 23 194 0.0 1.6 0.00 2.62 2.41 100 1018.4
20260902110206 22 194 0.0 0.0 0.00 2.62 2.41 100 1018.4
20260902105707 22 194 0.0 0.0 0.00 2.62 2.41 100 1018.4
20260902105208 22 194 0.0 0.0 0.00 2.62 2.41 100 1018.2
20260902104705 22 194 0.0 0.0 0.00 2.62 2.41 100 1018.3
20260902104204 22 194 0.0 0.0 0.00 2.62 2.41 100 1018.1
20260902103702 22 194 0.0 0.0 0.00 2.62 2.41 100 1018.0
20260902103202 22 194 0.0 0.0 0.00 2.62 2.41 100 1017.9
20260902102703 22 194 0.0 0.0 0.00 2.62 2.41 100 1017.9
20260902102200 22 194 0.0 0.0 0.00 2.62 2.41 100 1017.8
20260902101705 22 194 0.0 0.0 0.00 2.62 2.41 100 1017.7
20260902101202 22 194 0.0 0.0 0.00 2.62 2.41 100 1017.7
20260902100701 22 194 0.0 0.0 0.00 2.62 2.41 100 1017.8
20260902100203 22 194 0.0 0.0 0.00 2.62 2.41 100 1017.7
20260902095709 22 194 0.0 0.0 0.00 2.62 2.41 100 1017.7
20260902095202 22 194 0.0 0.0 0.00 2.62 2.41 100 1017.6
20260902094734 22 194 0.0 0.0 0.00 2.62 2.41 100 1017.7
20260902093702 22 194 0.0 0.0 0.00 2.62 2.41 100 1017.7
20260902092709 22 194 0.0 3.2 0.00 2.62 2.41 100 1017.7
20260902091704 22 194 1.6 3.2 0.00 2.62 2.41 100 1017.4
20260902091206 22 194 1.6 3.2 0.00 2.62 2.41 100 1017.4
20260902090213 22 192 1.6 3.2 0.00 2.62 2.41 100 1017.2
20260902085705 22 194 0.0 3.2 0.00 2.62 2.41 100 1017.2
20260902085206 22 197 0.0 3.2 0.00 2.62 2.41 100 1017.1
20260902083704 22 198 1.6 3.2 0.00 2.62 2.41 100 1017.0
20260902082714 22 198 1.6 3.2 0.00 2.62 2.41 100 1016.9
20260902082209 22 197 0.0 3.2 0.00 2.62 2.41 100 1016.8
20260902081658 22 193 0.0 3.2 0.00 2.62 2.41 100 1016.7
20260902080653 22 193 0.0 4.8 0.00 2.62 2.41 100 1016.5
20260902080151 22 193 0.0 4.8 0.00 2.62 2.41 100 1016.6
20260902075652 22 193 0.0 3.2 0.00 2.62 2.41 100 1016.6
20260902075147 22 193 0.0 0.0 0.00 2.62 2.41 100 1016.4
20260902074648 22 193 0.0 0.0 0.00 2.62 2.41 100 1016.4
20260902074149 22 193 0.0 0.0 0.00 2.62 2.41 100 1016.3
20260902073645 22 193 0.0 0.0 0.00 2.62 2.41 100 1016.4
20260902073144 22 193 0.0 0.0 0.00 2.62 2.41 100 1016.3
20260902072645 22 193 0.0 0.0 0.00 2.62 2.41 100 1016.3
20260902072146 22 193 0.0 0.0 0.00 2.62 2.41 100 1016.3
20260902071640 22 193 0.0 0.0 0.00 2.62 2.41 100 1016.2
20260902071140 22 193 0.0 0.0 0.00 2.62 2.41 100 1016.3
20260902070137 22 193 0.0 0.0 0.00 2.62 2.41 99 1016.3
20260902065637 22 193 0.0 0.0 0.00 2.62 2.41 99 1016.5
20260902064632 22 193 0.0 0.0 0.00 2.62 2.41 99 1016.7
20260902064132 22 193 0.0 3.2 0.00 2.62 2.41 99 1016.7
20260902063633 22 193 0.0 3.2 0.00 2.62 2.41 99 1016.7
20260902063132 22 193 0.0 3.2 0.03 2.62 2.41 99 1016.7
20260902062629 22 193 0.0 0.0 0.03 2.62 2.41 99 1016.7
20260902061636 22 193 0.0 1.6 0.03 2.62 2.41 99 1016.7
20260902060632 22 193 0.0 0.0 0.08 2.62 2.41 99 1016.6
20260902060134 22 193 0.0 0.0 0.20 2.62 2.41 99 1016.6
20260902055132 22 193 0.0 0.0 1.50 2.62 2.41 99 1016.7
20260902054630 22 193 0.0 1.6 2.06 2.62 2.41 99 1016.6
20260902054132 22 193 0.0 1.6 2.39 2.62 2.41 99 1016.5
20260902053629 22 193 0.0 0.0 2.41 2.62 2.41 99 1016.5
20260902053131 22 193 0.0 0.0 2.39 2.59 2.39 98 1016.8
20260902052629 22 193 0.0 0.0 2.39 2.59 2.39 98 1016.9
20260902052136 22 193 0.0 1.6 2.39 2.59 2.39 98 1017.0
20260902051631 22 193 0.0 3.2 2.39 2.59 2.39 98 1017.1
20260902050630 22 194 1.6 3.2 2.34 2.54 2.34 97 1017.8
20260902045630 22 279 0.0 3.2 1.68 1.88 1.52 98 1018.8
20260902045130 22 209 0.0 3.2 0.94 1.12 0.86 98 1018.6
20260902044632 22 198 0.0 3.2 0.38 0.56 0.30 98 1018.6
20260902044132 22 200 0.0 3.2 0.08 0.23 0.03 97 1018.1
20260902043131 22 341 0.0 3.2 0.08 0.20 0.00 97 1016.9
20260902042631 22 341 0.0 4.8 0.15 0.20 0.00 97 1016.5
20260902042134 22 341 0.0 4.8 0.15 0.20 0.00 97 1016.9
20260902041632 22 335 0.0 3.2 0.20 0.20 0.00 97 1017.2
20260902040634 22 341 0.0 3.2 0.20 0.20 0.00 97 1016.8
20260902040130 22 355 0.0 3.2 0.20 0.20 0.00 97 1017.1
20260902035631 22 355 1.6 6.4 0.20 0.20 0.18 96 1017.1
20260902035146 22 355 1.6 6.4 0.18 0.18 0.18 96 1016.8
20260902034629 22 348 1.6 3.2 0.18 0.18 0.18 95 1017.1
20260902034135 23 302 1.6 3.2 0.15 0.15 0.15 95 1017.2
20260902033632 23 248 0.0 3.2 0.15 0.15 0.15 96 1017.0
20260902032630 23 236 0.0 3.2 0.05 0.05 0.05 95 1017.0
20260902032131 23 219 0.0 3.2 0.05 0.05 0.05 95 1017.6
20260902031640 23 209 1.6 3.2 0.00 0.00 0.00 94 1017.5
20260902031131 23 198 1.6 3.2 0.00 0.00 0.00 93 1017.5
20260902030626 24 218 1.6 6.4 0.00 0.00 0.00 93 1017.5
20260902030120 24 196 3.2 6.4 0.00 0.00 0.00 92 1017.3
20260902025618 25 177 3.2 14.5 0.00 0.00 0.00 89 1017.2
20260902025118 25 204 3.2 14.5 0.00 0.00 0.00 86 1016.9
20260902024619 26 211 1.6 8.0 0.00 0.00 0.00 83 1016.5
20260902024117 27 213 1.6 11.3 0.00 0.00 0.00 80 1016.6
20260902023615 27 192 1.6 11.3 0.00 0.00 0.00 81 1016.0
20260902022614 27 134 0.0 1.6 0.00 0.00 0.00 83 1015.2
20260902022111 27 134 0.0 1.6 0.00 0.00 0.00 83 1015.2
20260902021612 28 134 0.0 1.6 0.00 0.00 0.00 82 1015.2
20260902020609 28 132 0.0 3.2 0.00 0.00 0.00 83 1015.1
20260902020109 28 132 0.0 3.2 0.00 0.00 0.00 83 1015.2
20260902015116 28 135 0.0 1.6 0.00 0.00 0.00 84 1014.9
20260902014612 28 130 0.0 1.6 0.00 0.00 0.00 84 1014.6
20260902013104 28 130 0.0 1.6 0.00 0.00 0.00 85 1014.6
20260902012604 28 130 0.0 1.6 0.00 0.00 0.00 85 1014.6
20260902012104 28 130 0.0 1.6 0.00 0.00 0.00 85 1014.4
20260902011640 28 130 0.0 1.6 0.00 0.00 0.00 85 1014.6
20260902011103 28 130 0.0 1.6 0.00 0.00 0.00 85 1014.5
20260902010105 28 130 0.0 0.0 0.00 0.00 0.00 85 1014.5
20260902005603 28 130 0.0 0.0 0.00 0.00 0.00 85 1014.7
20260902005154 28 130 0.0 0.0 0.00 0.00 0.00 86 1014.7
20260902004107 28 130 0.0 0.0 0.00 0.00 0.00 84 1014.8
20260902003611 28 130 0.0 1.6 0.00 0.00 0.00 84 1014.6
20260902003104 28 130 0.0 1.6 0.00 0.00 0.00 83 1014.3
20260902002603 28 130 0.0 0.0 0.00 0.00 0.00 83 1014.0
20260902002106 28 130 0.0 0.0 0.00 0.00 0.00 82 1014.0
20260902001103 29 130 0.0 0.0 0.00 0.00 0.00 81 1013.8
20260902000604 29 130 0.0 0.0 0.00 0.00 0.00 80 1013.9
20260901235050 29 130 0.0 0.0 0.00 0.00 0.00 80 1014.3
20260901234543 30 130 0.0 0.0 0.00 0.00 0.00 79 1014.4
20260901234035 30 130 0.0 0.0 0.00 0.00 0.00 78 1014.3
20260901233542 30 130 0.0 0.0 0.00 0.00 0.00 77 1014.1
20260901233034 30 130 0.0 0.0 0.00 0.00 0.00 77 1014.2
20260901232534 30 130 0.0 0.0 0.00 0.00 0.00 76 1014.0
20260901232031 30 130 0.0 0.0 0.00 0.00 0.00 75 1014.2
20260901231534 30 130 0.0 0.0 0.00 0.00 0.00 74 1014.4
20260901231029 30 130 0.0 0.0 0.00 0.00 0.00 73 1014.1
20260901230529 30 130 0.0 0.0 0.00 0.00 0.00 73 1014.3
20260901225529 31 130 0.0 0.0 0.00 0.00 0.00 72 1014.3
20260901224532 31 130 0.0 0.0 0.00 0.00 0.00 73 1014.2
20260901224038 31 130 0.0 0.0 0.00 0.00 0.00 71 1014.2
20260901223610 31 130 0.0 1.6 0.00 0.00 0.00 70 1014.2
20260901222524 31 130 0.0 1.6 0.00 0.00 0.00 69 1014.5
20260901222025 31 130 0.0 1.6 0.00 0.00 0.00 69 1014.6
20260901221601 32 130 0.0 1.6 0.00 0.00 0.00 69 1014.8
20260901220524 32 129 0.0 3.2 0.00 0.00 0.00 68 1014.8
20260901220028 32 139 0.0 1.6 0.00 0.00 0.00 70 1014.7
20260901215522 32 137 0.0 1.6 0.00 0.00 0.00 69 1014.8
20260901215023 32 132 0.0 4.8 0.00 0.00 0.00 69 1014.8
20260901214519 32 132 0.0 4.8 0.00 0.00 0.00 68 1014.7
20260901214018 32 119 0.0 1.6 0.00 0.00 0.00 68 1014.7
20260901213519 32 120 1.6 1.6 0.00 0.00 0.00 67 1014.8
20260901213021 32 121 1.6 4.8 0.00 0.00 0.00 65 1014.8
20260901212017 32 147 1.6 3.2 0.00 0.00 0.00 66 1014.5
20260901210018 32 150 1.6 6.4 0.00 0.00 0.00 66 1014.6
20260901205016 32 149 1.6 3.2 0.00 0.00 0.00 67 1014.8
20260901204519 32 134 0.0 1.6 0.00 0.00 0.00 66 1014.8
20260901204014 32 140 0.0 3.2 0.00 0.00 0.00 67 1014.7
20260901203519 32 136 1.6 3.2 0.00 0.00 0.00 65 1014.9
20260901203110 32 119 1.6 3.2 0.00 0.00 0.00 65 1014.8
20260901202517 32 121 0.0 3.2 0.00 0.00 0.00 67 1014.9
20260901201508 32 159 1.6 6.4 0.00 0.00 0.00 72 1015.1
20260901201012 32 186 0.0 3.2 0.00 0.00 0.00 71 1015.1
20260901200504 31 184 0.0 3.2 0.00 0.00 0.00 75 1015.2
20260901200006 31 184 1.6 6.4 0.00 0.00 0.00 72 1015.3
20260901195614 31 172 0.0 6.4 0.00 0.00 0.00 73 1015.4
20260901194504 31 185 0.0 3.2 0.00 0.00 0.00 76 1015.4
20260901194002 31 185 0.0 3.2 0.00 0.00 0.00 75 1015.5
20260901193003 31 186 0.0 1.6 0.00 0.00 0.00 77 1015.5
20260901192503 31 186 0.0 1.6 0.00 0.00 0.00 76 1015.4
20260901192003 31 186 0.0 1.6 0.00 0.00 0.00 77 1015.4
20260901191502 31 175 0.0 1.6 0.00 0.00 0.00 77 1015.4
20260901191002 30 175 0.0 0.0 0.00 0.00 0.00 77 1015.4
20260901190516 30 175 0.0 0.0 0.00 0.00 0.00 78 1015.5
20260901190001 30 175 0.0 1.6 0.00 0.00 0.00 78 1015.4
20260901185505 31 175 0.0 4.8 0.00 0.00 0.00 76 1015.5
20260901185007 31 175 0.0 4.8 0.00 0.00 0.00 79 1015.5
20260901184505 31 176 0.0 3.2 0.00 0.00 0.00 76 1015.4
20260901184003 31 176 0.0 3.2 0.00 0.00 0.00 75 1015.3
20260901183034 31 168 0.0 3.2 0.00 0.00 0.00 76 1015.5
20260901181949 31 150 0.0 1.6 0.00 0.00 0.00 76 1015.7
20260901181443 31 150 0.0 1.6 0.00 0.00 0.00 77 1015.7
20260901180940 31 150 0.0 1.6 0.00 0.00 0.00 75 1015.7
20260901180432 31 150 0.0 3.2 0.00 0.00 0.00 75 1015.8
20260901175935 31 150 0.0 3.2 0.00 0.00 0.00 73 1015.8
20260901175432 31 159 0.0 3.2 0.00 0.00 0.00 75 1016.0
20260901174936 31 160 0.0 6.4 0.00 0.00 0.00 74 1016.0
20260901174433 31 161 1.6 6.4 0.00 0.00 0.00 72 1015.9
20260901173931 31 170 1.6 6.4 0.00 0.00 0.00 72 1015.9
20260901173431 31 191 1.6 8.0 0.00 0.00 0.00 73 1015.8
20260901172931 31 184 1.6 8.0 0.00 0.00 0.00 74 1015.9
20260901171432 31 137 1.6 3.2 0.00 0.00 0.00 76 1016.1
20260901170932 31 138 1.6 3.2 0.00 0.00 0.00 73 1016.1
20260901165934 31 135 1.6 8.0 0.00 0.00 0.00 74 1016.0
20260901164931 31 163 1.6 8.0 0.00 0.00 0.00 75 1015.9
20260901164434 31 157 1.6 8.0 0.00 0.00 0.00 74 1016.0
20260901162940 30 155 0.0 3.2 0.00 0.00 0.00 77 1016.4
20260901162434 30 153 1.6 4.8 0.00 0.00 0.00 75 1016.4
20260901161935 30 149 1.6 4.8 0.00 0.00 0.00 76 1016.4
20260901161432 30 135 1.6 3.2 0.00 0.00 0.00 75 1016.6
20260901160431 30 166 1.6 6.4 0.00 0.00 0.00 75 1016.6
20260901155933 30 166 0.0 4.8 0.00 0.00 0.00 75 1016.6
20260901154934 30 194 1.6 3.2 0.00 0.00 0.00 76 1016.6
20260901153434 30 183 0.0 3.2 0.00 0.00 0.00 77 1016.8
20260901152433 30 179 0.0 3.2 0.00 0.00 0.00 77 1016.9
20260901151431 30 179 0.0 9.7 0.00 0.00 0.00 77 1016.8
20260901150922 30 179 0.0 9.7 0.00 0.00 0.00 74 1016.7
20260901145919 30 144 0.0 3.2 0.00 0.00 0.00 77 1017.0
20260901145414 29 165 0.0 3.2 0.00 0.00 0.00 79 1017.0
20260901144416 29 164 1.6 6.4 0.00 0.00 0.00 79 1017.0
20260901143911 29 164 1.6 6.4 0.00 0.00 0.00 78 1017.1
20260901143417 28 159 1.6 8.0 0.00 0.00 0.00 80 1017.1
20260901142911 28 167 1.6 8.0 0.00 0.00 0.00 80 1017.2
20260901141914 28 169 0.0 1.6 0.00 0.00 0.00 83 1017.1
20260901141412 28 169 1.6 6.4 0.00 0.00 0.00 84 1017.0